When you browse on this site, cookies collect data to enhance your experience and personalize the content and advertising you see.
Visit our Privacy Policy to learn more. By continuing to use the site, you agree to this use of cookies and data.
  • en Suisse
  • Liste des pays
  • À 7 jours
  • Température de l'eau
  • Carte météo
  • Widgets météo
  • user-avatar
    Se connecter

    Météo par heure à Nesebyr

    Ce jour, 21 Octobre, Lundi

    Heure Température Précipitation Vent Pression Humidité
    00:00 +15°C° 0 mm 1 m/s 765 mmHg 90%
    01:00 +15°C° 0 mm 1 m/s 765 mmHg 90%
    02:00 +14°C° 0 mm 0 m/s 765 mmHg 89%
    03:00 +14°C° 0 mm 0 m/s 765 mmHg 89%
    04:00 +14°C° 0 mm 0 m/s 765 mmHg 90%
    05:00 +13°C° 0 mm 0 m/s 765 mmHg 90%
    06:00 +14°C° 0 mm 0 m/s 765 mmHg 89%
    07:00 +15°C° 0 mm 0 m/s 765 mmHg 88%
    08:00 +18°C° 0 mm 1 m/s 765 mmHg 87%
    09:00 +20°C° 0 mm 1 m/s 765 mmHg 78%
    10:00 +20°C° 0 mm 2 m/s 765 mmHg 70%
    11:00 +23°C° 0 mm 2 m/s 765 mmHg 61%
    12:00 +24°C° 0 mm 2 m/s 765 mmHg 58%
    13:00 +24°C° 0 mm 3 m/s 765 mmHg 55%
    14:00 +25°C° 0 mm 3 m/s 765 mmHg 54%
    15:00 +22°C° 0 mm 3 m/s 765 mmHg 62%
    16:00 +21°C° 0 mm 2 m/s 765 mmHg 71%
    17:00 +19°C° 0 mm 2 m/s 765 mmHg 79%
    18:00 +18°C° 0 mm 2 m/s 765 mmHg 83%
    19:00 +17°C° 0 mm 2 m/s 765 mmHg 88%
    20:00 +16°C° 0 mm 1 m/s 765 mmHg 92%
    21:00 +16°C° 0 mm 1 m/s 765 mmHg 92%
    22:00 +15°C° 0 mm 1 m/s 765 mmHg 92%
    23:00 +15°C° 0 mm 1 m/s 765 mmHg 93%

    Demain, 22 Octobre, Mardi

    Heure Température Précipitation Vent Pression Humidité
    00:00 +15°C° 0 mm 1 m/s 765 mmHg 93%
    01:00 +14°C° 0 mm 1 m/s 765 mmHg 93%
    02:00 +14°C° 0 mm 1 m/s 765 mmHg 94%
    03:00 +14°C° 0 mm 1 m/s 765 mmHg 94%
    04:00 +14°C° 0 mm 1 m/s 765 mmHg 94%
    05:00 +14°C° 0 mm 1 m/s 765 mmHg 94%
    06:00 +14°C° 0 mm 1 m/s 765 mmHg 92%
    07:00 +15°C° 0 mm 1 m/s 765 mmHg 89%
    08:00 +16°C° 0 mm 1 m/s 765 mmHg 87%
    09:00 +19°C° 0 mm 1 m/s 765 mmHg 79%
    10:00 +19°C° 0 mm 2 m/s 766 mmHg 71%
    11:00 +21°C° 0 mm 3 m/s 766 mmHg 63%
    12:00 +21°C° 0 mm 3 m/s 765 mmHg 62%
    13:00 +22°C° 0 mm 3 m/s 765 mmHg 61%
    14:00 +22°C° 0 mm 4 m/s 765 mmHg 60%
    15:00 +21°C° 0 mm 3 m/s 765 mmHg 66%
    16:00 +20°C° 0 mm 3 m/s 765 mmHg 73%
    17:00 +19°C° 0 mm 3 m/s 765 mmHg 80%
    18:00 +18°C° 0 mm 3 m/s 765 mmHg 84%
    19:00 +17°C° 0 mm 3 m/s 765 mmHg 88%
    20:00 +17°C° 0 mm 3 m/s 765 mmHg 92%
    21:00 +16°C° 0 mm 2 m/s 765 mmHg 93%
    22:00 +16°C° 0 mm 2 m/s 765 mmHg 93%
    23:00 +15°C° 0 mm 2 m/s 765 mmHg 94%

    Après-demain, 23 Octobre, Mercredi

    Heure Température Précipitation Vent Pression Humidité
    00:00 +15°C° 0 mm 2 m/s 765 mmHg 93%
    01:00 +15°C° 0 mm 1 m/s 765 mmHg 93%
    02:00 +15°C° 0 mm 1 m/s 765 mmHg 93%
    03:00 +14°C° 0 mm 1 m/s 765 mmHg 93%
    04:00 +14°C° 0 mm 1 m/s 765 mmHg 93%
    05:00 +14°C° 0 mm 1 m/s 765 mmHg 93%
    06:00 +14°C° 0 mm 1 m/s 765 mmHg 90%
    07:00 +15°C° 0 mm 1 m/s 765 mmHg 87%
    08:00 +16°C° 0 mm 1 m/s 765 mmHg 84%
    09:00 +19°C° 0 mm 1 m/s 765 mmHg 74%
    10:00 +19°C° 0 mm 2 m/s 765 mmHg 65%
    11:00 +21°C° 0 mm 2 m/s 764 mmHg 55%
    12:00 +23°C° 0 mm 2 m/s 764 mmHg 54%
    13:00 +24°C° 0 mm 3 m/s 764 mmHg 52%
    14:00 +24°C° 0 mm 3 m/s 763 mmHg 50%
    15:00 +22°C° 0 mm 3 m/s 763 mmHg 57%
    16:00 +20°C° 0 mm 3 m/s 763 mmHg 64%
    17:00 +19°C° 0 mm 3 m/s 763 mmHg 72%
    18:00 +18°C° 0 mm 2 m/s 763 mmHg 77%
    19:00 +17°C° 0 mm 2 m/s 763 mmHg 82%
    20:00 +16°C° 0 mm 2 m/s 764 mmHg 87%
    21:00 +16°C° 0 mm 1 m/s 764 mmHg 88%
    22:00 +15°C° 0 mm 1 m/s 764 mmHg 88%
    23:00 +15°C° 0 mm 1 m/s 764 mmHg 89%

    24 Octobre, Jeudi

    Heure Température Précipitation Vent Pression Humidité
    00:00 +15°C° 0 mm 1 m/s 763 mmHg 88%
    01:00 +14°C° 0 mm 1 m/s 763 mmHg 88%
    02:00 +14°C° 0 mm 1 m/s 763 mmHg 88%
    03:00 +14°C° 0 mm 1 m/s 763 mmHg 88%
    04:00 +14°C° 0 mm 1 m/s 763 mmHg 88%
    05:00 +13°C° 0 mm 1 m/s 763 mmHg 89%
    06:00 +14°C° 0 mm 1 m/s 763 mmHg 85%
    07:00 +15°C° 0 mm 1 m/s 763 mmHg 81%
    08:00 +16°C° 0 mm 1 m/s 763 mmHg 78%
    09:00 +19°C° 0 mm 1 m/s 763 mmHg 69%
    10:00 +19°C° 0 mm 2 m/s 763 mmHg 61%
    11:00 +21°C° 0 mm 2 m/s 763 mmHg 52%
    12:00 +23°C° 0 mm 2 m/s 762 mmHg 48%
    13:00 +22°C° 0 mm 3 m/s 762 mmHg 45%
    14:00 +24°C° 0 mm 3 m/s 762 mmHg 41%
    15:00 +21°C° 0 mm 3 m/s 762 mmHg 49%
    16:00 +20°C° 0 mm 3 m/s 761 mmHg 57%
    17:00 +18°C° 0 mm 2 m/s 761 mmHg 65%
    18:00 +17°C° 0 mm 2 m/s 761 mmHg 71%
    19:00 +16°C° 0 mm 2 m/s 762 mmHg 77%
    20:00 +15°C° 0 mm 2 m/s 762 mmHg 83%
    21:00 +15°C° 0 mm 2 m/s 762 mmHg 84%
    22:00 +15°C° 0 mm 1 m/s 762 mmHg 84%
    23:00 +14°C° 0 mm 1 m/s 762 mmHg 85%

    25 Octobre, Vendredi

    Heure Température Précipitation Vent Pression Humidité
    00:00 +14°C° 0 mm 1 m/s 762 mmHg 86%
    01:00 +14°C° 0 mm 1 m/s 762 mmHg 86%
    02:00 +14°C° 0 mm 1 m/s 762 mmHg 86%
    03:00 +13°C° 0 mm 1 m/s 762 mmHg 87%
    04:00 +13°C° 0 mm 1 m/s 762 mmHg 87%
    05:00 +13°C° 0 mm 1 m/s 762 mmHg 87%
    06:00 +14°C° 0 mm 1 m/s 762 mmHg 84%
    07:00 +15°C° 0 mm 1 m/s 762 mmHg 82%
    08:00 +15°C° 0 mm 1 m/s 762 mmHg 79%
    09:00 +18°C° 0 mm 1 m/s 763 mmHg 70%
    10:00 +20°C° 0 mm 1 m/s 763 mmHg 61%
    11:00 +22°C° 0 mm 1 m/s 763 mmHg 51%
    12:00 +23°C° 0 mm 2 m/s 762 mmHg 47%
    13:00 +23°C° 0 mm 2 m/s 762 mmHg 42%
    14:00 +24°C° 0 mm 3 m/s 762 mmHg 38%
    15:00 +22°C° 0 mm 3 m/s 762 mmHg 46%
    16:00 +20°C° 0 mm 3 m/s 762 mmHg 55%
    17:00 +18°C° 0 mm 3 m/s 762 mmHg 63%
    18:00 +18°C° 0 mm 3 m/s 762 mmHg 70%
    19:00 +17°C° 0 mm 2 m/s 762 mmHg 77%
    20:00 +16°C° 0 mm 2 m/s 763 mmHg 84%
    21:00 +15°C° 0 mm 2 m/s 763 mmHg 85%
    22:00 +15°C° 0 mm 2 m/s 763 mmHg 86%
    23:00 +15°C° 0 mm 1 m/s 763 mmHg 87%

    26 Octobre, Samedi

    Heure Température Précipitation Vent Pression Humidité
    00:00 +14°C° 0 mm 1 m/s 763 mmHg 88%
    01:00 +14°C° 0 mm 1 m/s 763 mmHg 88%
    02:00 +14°C° 0 mm 1 m/s 763 mmHg 88%
    03:00 +14°C° 0 mm 1 m/s 763 mmHg 88%
    04:00 +13°C° 0 mm 1 m/s 763 mmHg 88%
    05:00 +13°C° 0 mm 1 m/s 763 mmHg 88%
    06:00 +14°C° 0 mm 1 m/s 763 mmHg 85%
    07:00 +15°C° 0 mm 1 m/s 763 mmHg 82%
    08:00 +15°C° 0 mm 1 m/s 764 mmHg 79%
    09:00 +18°C° 0 mm 1 m/s 764 mmHg 69%
    10:00 +20°C° 0 mm 1 m/s 764 mmHg 59%
    11:00 +22°C° 0 mm 1 m/s 764 mmHg 50%
    12:00 +23°C° 0 mm 2 m/s 763 mmHg 47%
    13:00 +23°C° 0 mm 2 m/s 763 mmHg 43%
    14:00 +24°C° 0 mm 2 m/s 763 mmHg 40%
    15:00 +21°C° 0 mm 2 m/s 763 mmHg 48%
    16:00 +19°C° 0 mm 2 m/s 762 mmHg 55%
    17:00 +18°C° 0 mm 2 m/s 762 mmHg 62%
    18:00 +17°C° 0 mm 2 m/s 762 mmHg 67%
    19:00 +16°C° 0 mm 1 m/s 762 mmHg 72%
    20:00 +15°C° 0 mm 1 m/s 763 mmHg 77%
    21:00 +15°C° 0 mm 1 m/s 763 mmHg 78%
    22:00 +13°C° 0 mm 0 m/s 763 mmHg 80%
    23:00 +13°C° 0 mm 0 m/s 763 mmHg 81%

    27 Octobre, Dimanche

    Heure Température Précipitation Vent Pression Humidité
    00:00 +13°C° 0 mm 0 m/s 763 mmHg 82%
    01:00 +14°C° 0 mm 1 m/s 763 mmHg 82%
    02:00 +14°C° 0 mm 1 m/s 762 mmHg 82%
    03:00 +13°C° 0 mm 1 m/s 762 mmHg 82%
    04:00 +13°C° 0 mm 1 m/s 762 mmHg 82%
    05:00 +13°C° 0 mm 1 m/s 762 mmHg 81%
    06:00 +14°C° 0 mm 1 m/s 762 mmHg 77%
    07:00 +15°C° 0 mm 1 m/s 762 mmHg 73%
    08:00 +16°C° 0 mm 1 m/s 762 mmHg 68%
    09:00 +19°C° 0 mm 1 m/s 762 mmHg 60%
    10:00 +21°C° 0 mm 1 m/s 762 mmHg 51%
    11:00 +23°C° 0 mm 1 m/s 762 mmHg 43%
    12:00 +24°C° 0 mm 1 m/s 762 mmHg 40%
    13:00 +24°C° 0 mm 1 m/s 762 mmHg 38%
    14:00 +25°C° 0 mm 1 m/s 761 mmHg 36%
    15:00 +23°C° 0 mm 1 m/s 761 mmHg 42%
    16:00 +22°C° 0 mm 1 m/s 761 mmHg 48%
    17:00 +19°C° 0 mm 2 m/s 761 mmHg 55%
    18:00 +19°C° 0 mm 1 m/s 761 mmHg 59%
    19:00 +18°C° 0 mm 1 m/s 761 mmHg 64%
    20:00 +16°C° 0 mm 1 m/s 762 mmHg 69%
    21:00 +16°C° 0 mm 1 m/s 762 mmHg 68%
    22:00 +16°C° 0 mm 1 m/s 762 mmHg 67%
    23:00 +15°C° 0 mm 0 m/s 762 mmHg 66%
    Voir plus